QPF
0.12 0.14 0.16 0.10 0.09 0.09 0.07 0.06 0.07 0.07 0.07 0.07 0.09 0.11 0.07 0.09 0.15 0.12 0.14 0.15 0.14 0.14 0.15 0.17 0.20 0.17 0.12 0.09 0.08 0.07 0.05 0.04 0.04 0.03 0.04 0.04 0.04 0.03 0.04 0.06 0.07 0.05 0.04
0.10 0.14 0.13 0.09 0.07 0.06 0.05 0.05 0.05 0.06 0.07 0.07 0.09 0.09 0.08 0.09 0.12 0.13 0.15 0.17 0.19 0.17 0.15 0.15 0.17 0.14 0.10 0.09 0.07 0.06 0.05 0.06 0.04 0.03 0.03 0.03 0.04 0.04 0.06 0.06 0.06 0.04 0.04
0.08 0.12 0.09 0.09 0.07 0.06 0.05 0.05 0.05 0.05 0.06 0.06 0.07 0.07 0.08 0.10 0.12 0.13 0.20 0.20 0.19 0.17 0.13 0.13 0.14 0.12 0.09 0.07 0.07 0.06 0.06 0.06 0.05 0.03 0.03 0.02 0.02 0.04 0.05 0.05 0.04 0.03 0.03
0.07 0.07 0.06 0.07 0.07 0.06 0.05 0.05 0.06 0.06 0.06 0.06 0.07 0.07 0.08 0.09 0.12 0.13 0.18 0.14 0.13 0.12 0.12 0.12 0.14 0.12 0.08 0.07 0.06 0.06 0.05 0.05 0.04 0.02 0.03 0.02 0.02 0.03 0.05 0.06 0.04 0.03 0.03
0.06 0.05 0.06 0.07 0.06 0.06 0.07 0.08 0.09 0.08 0.06 0.05 0.05 0.06 0.07 0.09 0.11 0.11 0.12 0.12 0.12 0.11 0.12 0.11 0.11 0.09 0.06 0.06 0.05 0.05 0.04 0.04 0.03 0.02 0.02 0.03 0.04 0.04 0.04 0.03 0.04 0.05 0.05
0.04 0.05 0.05 0.06 0.07 0.06 0.07 0.08 0.10 0.08 0.06 0.06 0.07 0.07 0.07 0.08 0.10 0.09 0.09 0.14 0.17 0.13 0.11 0.10 0.08 0.07 0.05 0.04 0.03 0.03 0.03 0.04 0.02 0.02 0.03 0.04 0.05 0.05 0.04 0.03 0.05 0.07 0.07
0.02 0.03 0.04 0.04 0.05 0.06 0.07 0.07 0.08 0.07 0.06 0.07 0.08 0.09 0.09 0.09 0.09 0.09 0.10 0.15 0.19 0.13 0.10 0.09 0.07 0.06 0.05 0.04 0.03 0.03 0.03 0.03 0.03 0.04 0.04 0.05 0.05 0.03 0.04 0.04 0.05 0.05 0.07
0.01 0.02 0.02 0.03 0.04 0.05 0.05 0.06 0.07 0.08 0.08 0.09 0.10 0.09 0.08 0.08 0.10 0.12 0.12 0.18 0.20 0.14 0.11 0.08 0.07 0.07 0.07 0.05 0.04 0.03 0.02 0.02 0.02 0.02 0.02 0.04 0.03 0.02 0.03 0.04 0.05 0.04 0.04
0.01 0.01 0.02 0.03 0.03 0.04 0.07 0.08 0.08 0.10 0.10 0.10 0.11 0.09 0.09 0.11 0.10 0.11 0.12 0.16 0.19 0.13 0.11 0.09 0.09 0.07 0.07 0.06 0.04 0.03 0.03 0.02 0.03 0.02 0.02 0.04 0.03 0.03 0.05 0.06 0.05 0.05 0.05
0.03 0.03 0.03 0.02 0.02 0.04 0.06 0.08 0.09 0.10 0.09 0.08 0.08 0.08 0.10 0.11 0.10 0.08 0.08 0.12 0.13 0.09 0.10 0.11 0.11 0.09 0.07 0.06 0.05 0.05 0.04 0.03 0.03 0.02 0.04 0.04 0.04 0.04 0.06 0.06 0.06 0.05 0.05
0.02 0.03 0.04 0.03 0.02 0.02 0.03 0.05 0.08 0.08 0.06 0.05 0.06 0.07 0.08 0.09 0.08 0.07 0.07 0.11 0.10 0.08 0.09 0.11 0.11 0.10 0.08 0.06 0.06 0.04 0.03 0.04 0.03 0.03 0.04 0.04 0.04 0.05 0.06 0.07 0.08 0.08 0.07
0.02 0.03 0.03 0.03 0.02 0.01 0.02 0.03 0.06 0.05 0.05 0.05 0.06 0.06 0.07 0.07 0.07 0.06 0.09 0.12 0.11 0.13 0.12 0.12 0.11 0.09 0.06 0.06 0.07 0.05 0.03 0.03 0.03 0.03 0.05 0.06 0.05 0.06 0.07 0.07 0.08 0.06 0.07
0.01 0.02 0.01 0.01 0.02 0.02 0.02 0.02 0.03 0.04 0.05 0.05 0.05 0.04 0.04 0.04 0.06 0.10 0.15 0.17 0.18 0.15 0.14 0.13 0.10 0.08 0.05 0.07 0.06 0.04 0.05 0.05 0.05 0.05 0.07 0.06 0.05 0.06 0.06 0.06 0.06 0.05 0.05
0.02 0.02 0.01 0.02 0.02 0.01 0.02 0.02 0.03 0.03 0.05 0.05 0.04 0.03 0.03 0.05 0.06 0.10 0.14 0.13 0.13 0.12 0.12 0.11 0.09 0.08 0.08 0.06 0.07 0.06 0.05 0.04 0.04 0.06 0.07 0.05 0.03 0.03 0.05 0.06 0.06 0.05 0.06
0.01 0.01 0.02 0.02 0.02 0.01 0.02 0.02 0.02 0.04 0.04 0.04 0.05 0.05 0.04 0.05 0.06 0.08 0.08 0.07 0.07 0.06 0.08 0.08 0.08 0.10 0.10 0.09 0.08 0.07 0.05 0.03 0.04 0.04 0.03 0.03 0.03 0.03 0.04 0.06 0.08 0.08 0.09
0.01 0.03 0.03 0.03 0.02 0.01 0.02 0.03 0.04 0.05 0.05 0.05 0.05 0.04 0.04 0.05 0.06 0.07 0.08 0.07 0.04 0.03 0.06 0.08 0.09 0.12 0.12 0.11 0.10 0.08 0.07 0.06 0.05 0.03 0.03 0.05 0.04 0.03 0.05 0.06 0.08 0.10 0.10
0.02 0.03 0.03 0.02 0.02 0.02 0.03 0.03 0.04 0.05 0.06 0.07 0.07 0.06 0.06 0.06 0.08 0.09 0.08 0.07 0.05 0.04 0.05 0.07 0.07 0.07 0.07 0.07 0.08 0.08 0.07 0.06 0.05 0.05 0.05 0.05 0.04 0.03 0.04 0.05 0.05 0.07 0.08
0.02 0.03 0.03 0.02 0.03 0.03 0.04 0.05 0.04 0.05 0.07 0.08 0.09 0.09 0.10 0.09 0.08 0.10 0.09 0.10 0.09 0.08 0.06 0.06 0.07 0.07 0.08 0.08 0.07 0.07 0.05 0.06 0.05 0.05 0.05 0.05 0.06 0.04 0.05 0.05 0.04 0.07 0.12
0.02 0.04 0.05 0.03 0.03 0.03 0.04 0.04 0.04 0.05 0.06 0.07 0.11 0.13 0.12 0.09 0.07 0.08 0.11 0.12 0.09 0.10 0.09 0.06 0.06 0.06 0.08 0.09 0.06 0.07 0.05 0.05 0.05 0.06 0.07 0.06 0.06 0.06 0.07 0.05 0.04 0.07 0.12
0.04 0.05 0.04 0.04 0.04 0.04 0.04 0.05 0.06 0.06 0.06 0.07 0.13 0.21 0.17 0.13 0.11 0.11 0.12 0.11 0.09 0.11 0.11 0.07 0.06 0.05 0.06 0.07 0.05 0.04 0.05 0.04 0.05 0.08 0.07 0.04 0.03 0.03 0.05 0.06 0.08 0.05 0.06
0.08 0.09 0.04 0.04 0.05 0.05 0.06 0.07 0.08 0.09 0.09 0.09 0.14 0.22 0.21 0.15 0.13 0.13 0.13 0.10 0.08 0.10 0.09 0.06 0.06 0.05 0.05 0.05 0.05 0.04 0.04 0.03 0.02 0.03 0.03 0.04 0.03 0.02 0.03 0.04 0.07 0.06 0.06
0.04 0.04 0.03 0.03 0.04 0.04 0.05 0.06 0.09 0.10 0.13 0.12 0.12 0.18 0.19 0.14 0.13 0.12 0.10 0.08 0.07 0.07 0.08 0.08 0.06 0.05 0.04 0.04 0.07 0.06 0.05 0.03 0.02 0.01 0.03 0.04 0.04 0.02 0.03 0.02 0.04 0.05 0.05
0.01 0.02 0.03 0.05 0.03 0.03 0.04 0.07 0.08 0.09 0.11 0.09 0.10 0.14 0.12 0.09 0.08 0.06 0.06 0.06 0.06 0.05 0.07 0.07 0.07 0.06 0.06 0.05 0.05 0.06 0.07 0.05 0.03 0.03 0.03 0.06 0.07 0.05 0.04 0.04 0.05 0.06 0.06
0.02 0.02 0.03 0.03 0.02 0.02 0.03 0.07 0.08 0.08 0.07 0.06 0.06 0.06 0.05 0.04 0.04 0.03 0.04 0.04 0.04 0.04 0.06 0.05 0.07 0.09 0.09 0.07 0.05 0.04 0.06 0.06 0.05 0.04 0.05 0.07 0.10 0.10 0.09 0.07 0.06 0.06 0.05
0.01 0.02 0.02 0.02 0.02 0.02 0.04 0.06 0.06 0.05 0.05 0.04 0.04 0.04 0.05 0.04 0.03 0.03 0.03 0.04 0.04 0.04 0.05 0.05 0.06 0.07 0.08 0.08 0.06 0.05 0.05 0.06 0.06 0.05 0.05 0.05 0.08 0.09 0.09 0.08 0.06 0.04 0.04
0.01 0.02 0.02 0.03 0.03 0.03 0.02 0.03 0.03 0.03 0.03 0.03 0.03 0.03 0.03 0.03 0.03 0.03 0.03 0.03 0.04 0.03 0.04 0.05 0.05 0.05 0.07 0.08 0.08 0.06 0.07 0.06 0.07 0.06 0.06 0.06 0.06 0.05 0.06 0.05 0.05 0.05 0.04
MSLP
1012.46 1012.21 1012.05 1012.02 1012.09 1012.27 1012.51 1012.76 1013.00 1013.21 1013.38 1013.55 1013.73 1013.95 1014.20 1014.48 1014.75 1014.99 1015.16 1015.26 1015.28 1015.25 1015.20 1015.17 1015.17 1015.22 1015.32 1015.43 1015.54 1015.62 1015.67 1015.70 1015.71 1015.74 1015.81 1015.91 1016.06 1016.22 1016.39 1016.53 1016.65 1016.73 1016.79
1012.61 1012.43 1012.33 1012.35 1012.48 1012.69 1012.93 1013.18 1013.40 1013.58 1013.73 1013.87 1014.04 1014.26 1014.52 1014.81 1015.09 1015.33 1015.49 1015.57 1015.56 1015.50 1015.43 1015.37 1015.36 1015.41 1015.49 1015.59 1015.68 1015.74 1015.76 1015.75 1015.74 1015.75 1015.80 1015.92 1016.09 1016.29 1016.49 1016.68 1016.83 1016.94 1017.01
1012.62 1012.52 1012.50 1012.59 1012.78 1013.05 1013.34 1013.61 1013.84 1014.01 1014.15 1014.27 1014.42 1014.62 1014.86 1015.13 1015.39 1015.61 1015.76 1015.81 1015.79 1015.72 1015.64 1015.58 1015.57 1015.61 1015.69 1015.78 1015.84 1015.87 1015.85 1015.80 1015.74 1015.72 1015.76 1015.88 1016.06 1016.29 1016.53 1016.76 1016.95 1017.09 1017.19
1012.55 1012.51 1012.57 1012.74 1013.02 1013.35 1013.70 1014.02 1014.28 1014.47 1014.60 1014.71 1014.84 1015.00 1015.20 1015.43 1015.66 1015.84 1015.96 1016.00 1015.97 1015.90 1015.83 1015.79 1015.80 1015.85 1015.92 1015.99 1016.03 1016.01 1015.95 1015.85 1015.75 1015.70 1015.71 1015.82 1016.01 1016.25 1016.53 1016.80 1017.03 1017.21 1017.34
1012.44 1012.47 1012.60 1012.84 1013.19 1013.59 1014.01 1014.38 1014.67 1014.88 1015.02 1015.13 1015.22 1015.35 1015.51 1015.69 1015.87 1016.01 1016.10 1016.14 1016.11 1016.07 1016.03 1016.02 1016.04 1016.10 1016.18 1016.23 1016.23 1016.18 1016.06 1015.91 1015.78 1015.68 1015.68 1015.77 1015.96 1016.22 1016.52 1016.82 1017.09 1017.31 1017.48
1012.37 1012.44 1012.61 1012.91 1013.30 1013.76 1014.22 1014.64 1014.97 1015.20 1015.35 1015.45 1015.53 1015.63 1015.74 1015.88 1016.01 1016.12 1016.20 1016.23 1016.23 1016.21 1016.21 1016.23 1016.29 1016.36 1016.43 1016.46 1016.43 1016.33 1016.17 1015.99 1015.81 1015.70 1015.67 1015.75 1015.94 1016.20 1016.51 1016.83 1017.13 1017.39 1017.60
1012.38 1012.47 1012.66 1012.97 1013.39 1013.86 1014.34 1014.78 1015.13 1015.38 1015.55 1015.65 1015.72 1015.80 1015.88 1015.98 1016.08 1016.17 1016.24 1016.28 1016.30 1016.32 1016.36 1016.41 1016.49 1016.58 1016.64 1016.65 1016.59 1016.45 1016.26 1016.05 1015.85 1015.72 1015.69 1015.76 1015.94 1016.20 1016.51 1016.83 1017.14 1017.42 1017.67
1012.49 1012.58 1012.76 1013.06 1013.46 1013.91 1014.38 1014.81 1015.16 1015.42 1015.59 1015.70 1015.78 1015.85 1015.92 1016.00 1016.08 1016.16 1016.22 1016.28 1016.32 1016.37 1016.44 1016.53 1016.62 1016.71 1016.76 1016.75 1016.67 1016.51 1016.30 1016.08 1015.88 1015.75 1015.72 1015.80 1015.97 1016.22 1016.51 1016.82 1017.12 1017.41 1017.66
1012.70 1012.77 1012.92 1013.18 1013.52 1013.93 1014.35 1014.74 1015.08 1015.33 1015.51 1015.63 1015.72 1015.79 1015.87 1015.94 1016.02 1016.09 1016.15 1016.21 1016.27 1016.35 1016.44 1016.54 1016.65 1016.74 1016.79 1016.77 1016.67 1016.51 1016.30 1016.09 1015.91 1015.80 1015.78 1015.86 1016.02 1016.25 1016.51 1016.79 1017.05 1017.31 1017.55
1012.95 1013.00 1013.11 1013.32 1013.60 1013.93 1014.29 1014.63 1014.93 1015.17 1015.35 1015.49 1015.59 1015.68 1015.76 1015.83 1015.90 1015.97 1016.03 1016.09 1016.16 1016.25 1016.35 1016.47 1016.59 1016.69 1016.73 1016.72 1016.63 1016.49 1016.30 1016.12 1015.97 1015.89 1015.88 1015.96 1016.11 1016.30 1016.52 1016.73 1016.94 1017.15 1017.35
1013.18 1013.22 1013.30 1013.45 1013.67 1013.93 1014.22 1014.51 1014.77 1015.00 1015.18 1015.32 1015.44 1015.54 1015.63 1015.70 1015.77 1015.82 1015.88 1015.93 1016.01 1016.10 1016.22 1016.35 1016.48 1016.59 1016.66 1016.66 1016.61 1016.49 1016.35 1016.21 1016.10 1016.04 1016.05 1016.13 1016.24 1016.38 1016.53 1016.68 1016.81 1016.94 1017.09
1013.34 1013.38 1013.44 1013.56 1013.73 1013.94 1014.18 1014.42 1014.65 1014.85 1015.03 1015.18 1015.31 1015.42 1015.51 1015.58 1015.64 1015.68 1015.72 1015.77 1015.84 1015.94 1016.07 1016.22 1016.38 1016.52 1016.62 1016.67 1016.66 1016.60 1016.51 1016.41 1016.34 1016.30 1016.32 1016.37 1016.44 1016.52 1016.59 1016.65 1016.69 1016.74 1016.81
1013.37 1013.43 1013.50 1013.61 1013.76 1013.94 1014.15 1014.36 1014.57 1014.76 1014.94 1015.09 1015.22 1015.34 1015.42 1015.48 1015.53 1015.56 1015.60 1015.64 1015.72 1015.83 1015.98 1016.16 1016.35 1016.54 1016.69 1016.79 1016.84 1016.84 1016.80 1016.75 1016.71 1016.69 1016.68 1016.70 1016.71 1016.72 1016.70 1016.66 1016.61 1016.57 1016.56
1013.26 1013.35 1013.45 1013.58 1013.74 1013.93 1014.13 1014.34 1014.54 1014.74 1014.91 1015.06 1015.19 1015.29 1015.37 1015.42 1015.46 1015.48 1015.51 1015.57 1015.66 1015.79 1015.97 1016.19 1016.43 1016.67 1016.88 1017.04 1017.16 1017.22 1017.23 1017.22 1017.20 1017.17 1017.14 1017.11 1017.06 1016.98 1016.88 1016.75 1016.61 1016.49 1016.39
1013.03 1013.16 1013.30 1013.47 1013.67 1013.89 1014.12 1014.35 1014.56 1014.76 1014.93 1015.07 1015.19 1015.27 1015.34 1015.38 1015.41 1015.44 1015.48 1015.56 1015.68 1015.85 1016.07 1016.33 1016.61 1016.90 1017.17 1017.40 1017.57 1017.69 1017.76 1017.78 1017.77 1017.72 1017.66 1017.57 1017.45 1017.30 1017.12 1016.92 1016.70 1016.50 1016.34
1012.71 1012.88 1013.08 1013.31 1013.56 1013.83 1014.11 1014.37 1014.61 1014.81 1014.98 1015.10 1015.19 1015.26 1015.30 1015.34 1015.37 1015.42 1015.49 1015.60 1015.76 1015.97 1016.24 1016.54 1016.87 1017.20 1017.52 1017.79 1018.02 1018.18 1018.29 1018.34 1018.33 1018.28 1018.19 1018.05 1017.88 1017.67 1017.42 1017.16 1016.89 1016.63 1016.41
1012.37 1012.58 1012.83 1013.12 1013.44 1013.78 1014.10 1014.41 1014.67 1014.88 1015.03 1015.13 1015.19 1015.23 1015.25 1015.28 1015.32 1015.40 1015.51 1015.67 1015.87 1016.13 1016.43 1016.77 1017.12 1017.48 1017.82 1018.14 1018.40 1018.60 1018.74 1018.82 1018.83 1018.78 1018.67 1018.51 1018.31 1018.06 1017.78 1017.49 1017.18 1016.89 1016.61
1012.06 1012.30 1012.61 1012.96 1013.34 1013.74 1014.12 1014.46 1014.74 1014.95 1015.08 1015.15 1015.17 1015.17 1015.17 1015.19 1015.25 1015.35 1015.51 1015.72 1015.98 1016.27 1016.60 1016.95 1017.32 1017.68 1018.03 1018.35 1018.64 1018.88 1019.06 1019.17 1019.21 1019.19 1019.09 1018.93 1018.72 1018.47 1018.18 1017.88 1017.57 1017.25 1016.95
1011.80 1012.09 1012.44 1012.85 1013.30 1013.75 1014.18 1014.55 1014.83 1015.03 1015.13 1015.15 1015.13 1015.09 1015.06 1015.07 1015.14 1015.28 1015.49 1015.74 1016.04 1016.37 1016.71 1017.06 1017.41 1017.76 1018.09 1018.41 1018.71 1018.98 1019.20 1019.36 1019.46 1019.48 1019.43 1019.30 1019.12 1018.89 1018.63 1018.34 1018.04 1017.72 1017.40
1011.61 1011.95 1012.36 1012.82 1013.31 1013.81 1014.26 1014.65 1014.94 1015.12 1015.19 1015.17 1015.09 1015.01 1014.95 1014.95 1015.03 1015.19 1015.43 1015.72 1016.05 1016.40 1016.74 1017.07 1017.39 1017.70 1018.02 1018.32 1018.63 1018.92 1019.19 1019.42 1019.59 1019.68 1019.70 1019.64 1019.51 1019.33 1019.10 1018.85 1018.58 1018.28 1017.95
1011.45 1011.86 1012.32 1012.83 1013.36 1013.89 1014.37 1014.77 1015.06 1015.22 1015.26 1015.20 1015.08 1014.96 1014.87 1014.85 1014.93 1015.10 1015.36 1015.68 1016.03 1016.37 1016.70 1017.01 1017.29 1017.57 1017.84 1018.13 1018.44 1018.76 1019.08 1019.38 1019.62 1019.81 1019.91 1019.93 1019.87 1019.76 1019.59 1019.39 1019.15 1018.88 1018.57
1011.31 1011.80 1012.31 1012.86 1013.42 1013.96 1014.46 1014.87 1015.16 1015.31 1015.34 1015.25 1015.11 1014.95 1014.84 1014.80 1014.87 1015.04 1015.31 1015.64 1015.99 1016.33 1016.64 1016.92 1017.16 1017.39 1017.64 1017.90 1018.21 1018.56 1018.92 1019.28 1019.61 1019.88 1020.07 1020.18 1020.21 1020.16 1020.05 1019.91 1019.72 1019.50 1019.22
1011.16 1011.72 1012.28 1012.85 1013.43 1013.98 1014.49 1014.90 1015.21 1015.38 1015.41 1015.33 1015.18 1015.02 1014.89 1014.83 1014.89 1015.05 1015.31 1015.63 1015.97 1016.30 1016.59 1016.84 1017.05 1017.25 1017.46 1017.70 1018.01 1018.36 1018.76 1019.17 1019.57 1019.91 1020.18 1020.37 1020.47 1020.49 1020.45 1020.36 1020.23 1020.06 1019.83
1010.97 1011.59 1012.20 1012.78 1013.35 1013.90 1014.41 1014.85 1015.18 1015.39 1015.47 1015.43 1015.31 1015.16 1015.03 1014.96 1015.00 1015.14 1015.37 1015.67 1015.99 1016.30 1016.58 1016.80 1016.99 1017.16 1017.34 1017.57 1017.85 1018.21 1018.61 1019.05 1019.48 1019.88 1020.21 1020.45 1020.61 1020.70 1020.72 1020.69 1020.62 1020.52 1020.36
1010.76 1011.44 1012.05 1012.62 1013.17 1013.71 1014.22 1014.69 1015.07 1015.34 1015.49 1015.52 1015.46 1015.35 1015.24 1015.18 1015.20 1015.31 1015.51 1015.77 1016.07 1016.35 1016.61 1016.81 1016.98 1017.14 1017.30 1017.50 1017.76 1018.09 1018.48 1018.91 1019.35 1019.76 1020.12 1020.41 1020.61 1020.75 1020.82 1020.86 1020.86 1020.83 1020.76
1010.56 1011.26 1011.87 1012.40 1012.92 1013.43 1013.94 1014.43 1014.87 1015.23 1015.48 1015.61 1015.63 1015.59 1015.52 1015.46 1015.46 1015.54 1015.70 1015.92 1016.17 1016.43 1016.67 1016.87 1017.03 1017.16 1017.30 1017.48 1017.70 1017.99 1018.35 1018.74 1019.15 1019.55 1019.92 1020.22 1020.46 1020.64 1020.78 1020.87 1020.95 1021.00 1021.03
Thickness
5779 5781 5776 5777 5777 5777 5777 5777 5776 5776 5775 5775 5774 5773 5773 5772 5771 5771 5770 5769 5768 5767 5766 5764 5763 5762 5761 5760 5759 5758 5757 5756 5755 5754 5753 5752 5751 5750 5750 5749 5750 5749 5747
5781 5780 5775 5775 5776 5776 5775 5775 5775 5775 5774 5773 5773 5773 5772 5771 5771 5770 5768 5767 5766 5765 5764 5763 5762 5761 5759 5758 5757 5756 5755 5755 5754 5753 5752 5751 5750 5749 5748 5748 5748 5748 5745
5781 5779 5776 5774 5774 5774 5774 5774 5774 5773 5773 5772 5771 5771 5771 5770 5769 5768 5766 5766 5765 5764 5763 5762 5761 5759 5758 5757 5756 5755 5754 5753 5753 5752 5752 5754 5750 5747 5746 5746 5745 5744 5743
5781 5780 5777 5773 5773 5772 5772 5772 5772 5772 5771 5771 5770 5770 5769 5768 5768 5767 5765 5765 5764 5763 5761 5760 5759 5758 5757 5755 5754 5753 5752 5752 5752 5752 5754 5754 5752 5746 5745 5744 5743 5742 5742
5781 5780 5775 5773 5772 5771 5771 5770 5770 5770 5769 5769 5768 5768 5767 5767 5766 5765 5764 5763 5762 5761 5760 5759 5758 5756 5755 5754 5753 5752 5751 5751 5751 5753 5753 5752 5750 5745 5744 5743 5742 5741 5740
5781 5780 5775 5772 5771 5771 5770 5769 5769 5768 5768 5767 5767 5766 5766 5765 5765 5764 5764 5762 5761 5760 5759 5758 5757 5755 5754 5753 5752 5751 5750 5750 5751 5754 5753 5752 5749 5745 5743 5742 5741 5740 5739
5781 5779 5775 5771 5770 5770 5769 5768 5768 5767 5767 5766 5765 5765 5765 5764 5764 5763 5763 5762 5760 5759 5758 5756 5755 5754 5752 5751 5751 5750 5750 5750 5753 5753 5752 5751 5747 5744 5742 5741 5740 5739 5738
5782 5780 5775 5771 5770 5769 5769 5768 5767 5766 5766 5765 5764 5764 5764 5763 5763 5763 5762 5761 5759 5758 5757 5755 5754 5753 5751 5750 5750 5749 5749 5750 5752 5753 5752 5750 5745 5743 5741 5740 5739 5738 5737
5782 5780 5778 5776 5772 5770 5768 5767 5766 5766 5765 5764 5763 5763 5763 5763 5762 5762 5761 5759 5758 5757 5756 5754 5753 5752 5751 5750 5749 5749 5749 5750 5753 5752 5751 5748 5743 5742 5740 5739 5738 5737 5735
5780 5780 5779 5777 5775 5774 5771 5768 5767 5766 5765 5764 5763 5763 5763 5763 5762 5761 5760 5759 5757 5756 5755 5754 5752 5751 5750 5749 5749 5748 5748 5749 5753 5752 5751 5747 5743 5741 5740 5738 5737 5736 5735
5778 5778 5778 5778 5776 5776 5774 5770 5768 5767 5765 5764 5764 5763 5763 5765 5765 5762 5760 5758 5757 5756 5755 5753 5752 5751 5750 5749 5748 5748 5748 5751 5753 5751 5749 5745 5742 5740 5739 5738 5737 5736 5735
5777 5778 5778 5777 5776 5776 5774 5772 5771 5770 5767 5766 5766 5765 5765 5764 5763 5763 5759 5757 5756 5755 5754 5752 5752 5751 5751 5752 5750 5748 5750 5751 5751 5750 5747 5744 5742 5740 5739 5738 5737 5735 5734
5779 5778 5778 5777 5776 5776 5774 5773 5771 5770 5768 5767 5765 5764 5764 5764 5764 5763 5761 5759 5757 5756 5756 5754 5753 5754 5753 5752 5752 5752 5751 5751 5750 5750 5747 5743 5741 5740 5739 5738 5736 5735 5734
5780 5778 5779 5777 5775 5774 5774 5774 5772 5771 5769 5768 5765 5764 5764 5764 5763 5763 5761 5760 5759 5757 5756 5755 5754 5753 5752 5751 5751 5751 5750 5750 5750 5749 5745 5742 5741 5740 5739 5738 5736 5735 5733
5780 5780 5779 5777 5775 5774 5772 5773 5773 5771 5770 5768 5766 5764 5764 5764 5763 5762 5760 5759 5759 5758 5756 5755 5754 5752 5751 5751 5750 5750 5750 5749 5748 5748 5745 5742 5740 5739 5738 5738 5736 5735 5734
5782 5781 5781 5778 5776 5774 5772 5771 5771 5771 5768 5768 5766 5765 5763 5763 5762 5761 5759 5758 5758 5757 5756 5755 5754 5752 5751 5750 5750 5749 5749 5748 5747 5746 5746 5742 5740 5739 5738 5737 5736 5735 5733
5785 5783 5781 5780 5778 5775 5774 5773 5772 5771 5770 5768 5766 5764 5763 5762 5761 5760 5760 5759 5758 5756 5755 5754 5753 5753 5752 5751 5750 5749 5748 5747 5746 5745 5745 5743 5741 5738 5737 5736 5735 5734 5732
5787 5784 5782 5783 5780 5776 5774 5773 5773 5772 5770 5769 5767 5766 5764 5762 5761 5760 5760 5759 5757 5756 5755 5754 5754 5753 5752 5751 5749 5748 5748 5746 5746 5744 5744 5742 5741 5740 5737 5735 5734 5732 5731
5789 5785 5782 5782 5780 5778 5776 5774 5773 5772 5770 5770 5769 5767 5765 5763 5761 5761 5760 5758 5757 5756 5755 5755 5754 5752 5749 5748 5748 5747 5747 5746 5745 5744 5742 5741 5739 5738 5737 5734 5732 5731 5729
5791 5787 5784 5782 5780 5779 5778 5775 5774 5773 5772 5771 5769 5767 5765 5764 5762 5762 5760 5758 5758 5756 5754 5752 5750 5749 5749 5748 5749 5747 5746 5745 5744 5742 5741 5740 5737 5736 5735 5734 5731 5729 5727
5792 5788 5786 5783 5781 5779 5778 5776 5774 5773 5772 5772 5770 5768 5766 5764 5763 5762 5762 5758 5757 5755 5753 5752 5750 5748 5747 5747 5745 5742 5743 5743 5741 5739 5739 5738 5736 5734 5732 5731 5729 5729 5727
5794 5790 5788 5784 5782 5780 5779 5777 5775 5774 5773 5772 5770 5767 5766 5765 5763 5763 5760 5759 5757 5754 5752 5750 5749 5748 5747 5748 5744 5740 5737 5736 5736 5738 5736 5734 5733 5732 5730 5728 5726 5725 5724
5796 5793 5792 5788 5785 5783 5781 5779 5776 5773 5772 5771 5768 5767 5766 5764 5762 5760 5759 5758 5756 5756 5752 5749 5748 5746 5745 5746 5746 5742 5737 5733 5732 5733 5732 5731 5729 5728 5727 5726 5723 5722 5721
5801 5798 5794 5790 5787 5784 5782 5779 5776 5772 5770 5769 5768 5767 5766 5763 5761 5760 5758 5757 5756 5756 5752 5750 5749 5747 5744 5743 5743 5742 5741 5740 5733 5728 5727 5728 5726 5723 5723 5723 5721 5719 5717
5805 5801 5797 5793 5788 5786 5783 5780 5777 5775 5773 5772 5770 5767 5765 5764 5762 5760 5758 5757 5755 5754 5752 5750 5748 5746 5745 5743 5742 5741 5739 5737 5735 5730 5723 5722 5722 5721 5720 5717 5716 5715 5713
5807 5804 5800 5794 5789 5787 5784 5781 5778 5775 5772 5770 5768 5766 5765 5764 5763 5761 5759 5757 5755 5754 5751 5749 5747 5746 5744 5742 5741 5740 5737 5735 5732 5728 5723 5719 5717 5716 5716 5714 5712 5711 5710